Time,TemperatureF,DewpointF,PressureIn,WindDirection,WindDirectionDegrees,WindSpeedMPH,WindSpeedGustMPH,Humidity,HourlyPrecipIn,Conditions,Clouds,dailyrainin,SoftwareType,DateUTC
2013-06-05 00:00:00,67.7,63.0,30.13,NNW,338,0.0,0.0,85,0.00,,,0.00,WUHU216HW,2013-06-05 04:00:00,
2013-06-05 00:01:00,67.7,63.0,30.13,NNW,338,0.0,0.0,85,0.00,,,0.00,WUHU216HW,2013-06-05 04:01:00,
2013-06-05 00:06:00,67.7,63.0,30.13,NNW,338,0.0,0.0,85,0.00,,,0.00,WUHU216HW,2013-06-05 04:06:00,
2013-06-05 00:30:00,67.3,63.0,30.13,NNW,338,0.0,0.0,86,0.00,,,0.00,WUHU216HW,2013-06-05 04:30:00,
2013-06-05 00:35:00,67.3,63.0,30.13,NNW,338,0.0,0.0,86,0.00,,,0.00,WUHU216HW,2013-06-05 04:35:00,
2013-06-05 01:00:00,66.8,62.5,30.13,NNE,23,0.0,0.0,86,0.00,,,0.00,WUHU216HW,2013-06-05 05:00:00,
2013-06-05 01:05:00,66.8,62.5,30.13,NNE,23,0.0,0.0,86,0.00,,,0.00,WUHU216HW,2013-06-05 05:05:00,
2013-06-05 01:30:00,66.2,62.2,30.13,NNE,23,0.0,0.0,87,0.00,,,0.00,WUHU216HW,2013-06-05 05:30:00,
2013-06-05 01:35:00,66.2,62.2,30.13,NNE,23,0.0,0.0,87,0.00,,,0.00,WUHU216HW,2013-06-05 05:35:00,
2013-06-05 02:00:00,66.1,62.0,30.13,NNE,23,0.0,0.0,87,0.00,,,0.00,WUHU216HW,2013-06-05 06:00:00,
2013-06-05 02:05:00,66.1,62.0,30.13,NNE,23,0.0,0.0,87,0.00,,,0.00,WUHU216HW,2013-06-05 06:05:00,
2013-06-05 02:30:00,65.9,61.8,30.13,NNE,23,0.0,0.0,87,0.00,,,0.00,WUHU216HW,2013-06-05 06:30:00,
2013-06-05 02:35:00,65.9,61.8,30.13,NNE,23,0.0,0.0,87,0.00,,,0.00,WUHU216HW,2013-06-05 06:35:00,
2013-06-05 03:00:00,65.3,61.8,30.13,NNE,23,0.0,0.0,88,0.00,,,0.00,WUHU216HW,2013-06-05 07:00:00,
2013-06-05 03:05:00,65.3,61.8,30.13,NNE,23,0.0,0.0,88,0.00,,,0.00,WUHU216HW,2013-06-05 07:05:00,
2013-06-05 03:30:00,64.6,60.7,30.12,North,0,0.0,0.0,87,0.00,,,0.00,WUHU216HW,2013-06-05 07:30:00,
2013-06-05 03:35:00,64.6,60.7,30.12,North,0,0.0,0.0,87,0.00,,,0.00,WUHU216HW,2013-06-05 07:35:00,
2013-06-05 04:00:00,64.4,60.6,30.12,North,0,0.0,0.0,87,0.00,,,0.00,WUHU216HW,2013-06-05 08:00:00,
2013-06-05 04:05:00,64.4,60.6,30.12,North,0,0.0,0.0,87,0.00,,,0.00,WUHU216HW,2013-06-05 08:05:00,
2013-06-05 04:30:00,63.7,60.1,30.11,North,0,0.0,0.0,88,0.00,,,0.00,WUHU216HW,2013-06-05 08:30:00,
2013-06-05 04:35:00,63.7,60.1,30.11,North,0,0.0,0.0,88,0.00,,,0.00,WUHU216HW,2013-06-05 08:35:00,
2013-06-05 05:00:00,63.7,60.1,30.12,North,0,0.0,0.0,88,0.00,,,0.00,WUHU216HW,2013-06-05 09:00:00,
2013-06-05 05:05:00,63.7,60.1,30.12,North,0,0.0,0.0,88,0.00,,,0.00,WUHU216HW,2013-06-05 09:05:00,
2013-06-05 05:30:00,63.4,60.1,30.12,NNE,23,0.0,0.0,89,0.00,,,0.00,WUHU216HW,2013-06-05 09:30:00,
2013-06-05 05:35:00,63.4,60.1,30.12,NNE,23,0.0,0.0,89,0.00,,,0.00,WUHU216HW,2013-06-05 09:35:00,
2013-06-05 06:00:00,63.4,60.1,30.14,North,0,0.0,0.0,89,0.00,,,0.00,WUHU216HW,2013-06-05 10:00:00,
2013-06-05 06:05:00,63.4,60.1,30.14,North,0,0.0,0.0,89,0.00,,,0.00,WUHU216HW,2013-06-05 10:05:00,
2013-06-05 06:30:00,63.0,59.8,30.15,North,0,0.0,0.0,89,0.00,,,0.00,WUHU216HW,2013-06-05 10:30:00,
2013-06-05 07:00:00,62.6,59.8,30.16,North,0,0.0,0.0,90,0.00,,,0.00,WUHU216HW,2013-06-05 11:00:00,
2013-06-05 07:30:00,62.8,59.9,30.16,North,0,0.0,0.0,90,0.00,,,0.00,WUHU216HW,2013-06-05 11:30:00,
2013-06-05 07:35:00,62.8,59.9,30.16,North,0,0.0,0.0,90,0.00,,,0.00,WUHU216HW,2013-06-05 11:35:00,
2013-06-05 08:00:00,63.7,60.8,30.17,North,0,0.0,0.0,90,0.00,,,0.00,WUHU216HW,2013-06-05 12:00:00,
2013-06-05 08:05:00,63.7,60.8,30.17,North,0,0.0,0.0,90,0.00,,,0.00,WUHU216HW,2013-06-05 12:05:00,
2013-06-05 08:30:00,64.4,60.6,30.16,SSW,203,0.7,0.7,87,0.00,,,0.00,WUHU216HW,2013-06-05 12:30:00,
2013-06-05 08:35:00,64.4,60.6,30.16,SSW,203,0.7,0.7,87,0.00,,,0.00,WUHU216HW,2013-06-05 12:35:00,
2013-06-05 08:40:00,64.4,60.6,30.16,SSW,203,0.7,0.7,87,0.00,,,0.00,WUHU216HW,2013-06-05 12:40:00,
2013-06-05 09:00:00,65.0,60.7,30.17,South,180,0.4,0.4,86,0.00,,,0.00,WUHU216HW,2013-06-05 13:00:00,
2013-06-05 09:05:00,65.0,60.7,30.17,South,180,0.4,0.4,86,0.00,,,0.00,WUHU216HW,2013-06-05 13:05:00,
2013-06-05 09:30:00,66.2,60.6,30.17,ENE,68,0.0,0.0,82,0.00,,,0.00,WUHU216HW,2013-06-05 13:30:00,
2013-06-05 09:35:00,66.2,60.6,30.17,ENE,68,0.0,0.0,82,0.00,,,0.00,WUHU216HW,2013-06-05 13:35:00,
2013-06-05 10:00:00,67.9,61.6,30.16,NNE,23,1.1,1.1,80,0.00,,,0.00,WUHU216HW,2013-06-05 14:00:00,
2013-06-05 10:05:00,67.9,61.6,30.16,NNE,23,1.1,1.1,80,0.00,,,0.00,WUHU216HW,2013-06-05 14:05:00,
2013-06-05 10:30:00,69.3,62.1,30.17,ENE,68,0.4,0.4,78,0.00,,,0.00,WUHU216HW,2013-06-05 14:30:00,
2013-06-05 10:35:00,69.3,62.1,30.17,ENE,68,0.4,0.4,78,0.00,,,0.00,WUHU216HW,2013-06-05 14:35:00,
2013-06-05 11:00:00,70.9,62.9,30.16,SE,135,0.4,0.4,76,0.00,,,0.00,WUHU216HW,2013-06-05 15:00:00,
2013-06-05 11:05:00,70.9,62.9,30.16,SE,135,0.4,0.4,76,0.00,,,0.00,WUHU216HW,2013-06-05 15:05:00,
2013-06-05 11:10:00,70.9,62.9,30.16,SE,135,0.4,0.4,76,0.00,,,0.00,WUHU216HW,2013-06-05 15:10:00,
2013-06-05 11:30:00,72.2,63.8,30.16,SSE,158,0.7,0.7,75,0.00,,,0.00,WUHU216HW,2013-06-05 15:30:00,
2013-06-05 11:35:00,72.2,63.8,30.16,SSE,158,0.7,0.7,75,0.00,,,0.00,WUHU216HW,2013-06-05 15:35:00,
2013-06-05 11:40:00,72.2,63.8,30.16,SSE,158,0.7,0.7,75,0.00,,,0.00,WUHU216HW,2013-06-05 15:40:00,
2013-06-05 12:00:00,73.4,64.7,30.15,SSE,158,1.1,1.1,74,0.00,,,0.00,WUHU216HW,2013-06-05 16:00:00,
2013-06-05 12:05:00,73.4,64.7,30.15,SSE,158,1.1,1.1,74,0.00,,,0.00,WUHU216HW,2013-06-05 16:05:00,
2013-06-05 12:30:00,74.9,65.6,30.14,ENE,68,0.7,0.7,73,0.00,,,0.00,WUHU216HW,2013-06-05 16:30:00,
2013-06-05 12:35:00,74.9,65.6,30.14,ENE,68,0.7,0.7,73,0.00,,,0.00,WUHU216HW,2013-06-05 16:35:00,
2013-06-05 13:00:00,77.8,66.8,30.14,ENE,68,0.9,0.9,69,0.00,,,0.00,WUHU216HW,2013-06-05 17:00:00,
2013-06-05 13:05:00,77.8,66.8,30.14,ENE,68,0.9,0.9,69,0.00,,,0.00,WUHU216HW,2013-06-05 17:05:00,
2013-06-05 13:30:00,79.0,66.7,30.13,WSW,248,1.1,1.1,66,0.00,,,0.00,WUHU216HW,2013-06-05 17:30:00,
2013-06-05 13:35:00,79.0,66.7,30.13,WSW,248,1.1,1.1,66,0.00,,,0.00,WUHU216HW,2013-06-05 17:35:00,
2013-06-05 14:00:00,80.6,66.9,30.12,North,0,1.1,1.1,63,0.00,,,0.00,WUHU216HW,2013-06-05 18:00:00,
2013-06-05 14:05:00,80.6,66.9,30.12,North,0,1.1,1.1,63,0.00,,,0.00,WUHU216HW,2013-06-05 18:05:00,
2013-06-05 14:30:00,81.5,66.8,30.11,ENE,68,0.4,0.4,61,0.00,,,0.00,WUHU216HW,2013-06-05 18:30:00,
2013-06-05 14:35:00,81.5,66.8,30.11,ENE,68,0.4,0.4,61,0.00,,,0.00,WUHU216HW,2013-06-05 18:35:00,
2013-06-05 15:00:00,82.6,66.2,30.10,ENE,68,0.9,0.9,58,0.00,,,0.00,WUHU216HW,2013-06-05 19:00:00,
2013-06-05 15:05:00,82.6,66.2,30.10,ENE,68,0.9,0.9,58,0.00,,,0.00,WUHU216HW,2013-06-05 19:05:00,
2013-06-05 15:30:00,82.4,65.6,30.10,NE,45,0.0,0.0,57,0.00,,,0.00,WUHU216HW,2013-06-05 19:30:00,
2013-06-05 15:35:00,82.4,65.6,30.10,NE,45,0.0,0.0,57,0.00,,,0.00,WUHU216HW,2013-06-05 19:35:00,
2013-06-05 16:00:00,81.5,65.3,30.09,WNW,293,0.4,0.4,58,0.00,,,0.00,WUHU216HW,2013-06-05 20:00:00,
2013-06-05 16:05:00,81.5,65.3,30.09,WNW,293,0.4,0.4,58,0.00,,,0.00,WUHU216HW,2013-06-05 20:05:00,
2013-06-05 16:30:00,79.6,63.6,30.08,ENE,68,0.2,0.2,58,0.00,,,0.00,WUHU216HW,2013-06-05 20:30:00,
2013-06-05 16:35:00,79.6,63.6,30.08,ENE,68,0.2,0.2,58,0.00,,,0.00,WUHU216HW,2013-06-05 20:35:00,
2013-06-05 17:00:00,79.6,65.4,30.08,SW,225,0.0,0.0,62,0.00,,,0.00,WUHU216HW,2013-06-05 21:00:00,
2013-06-05 17:05:00,79.6,65.4,30.08,SW,225,0.0,0.0,62,0.00,,,0.00,WUHU216HW,2013-06-05 21:05:00,
2013-06-05 17:30:00,78.8,65.2,30.07,ESE,113,0.0,0.0,63,0.00,,,0.00,WUHU216HW,2013-06-05 21:30:00,
2013-06-05 17:35:00,78.8,65.2,30.07,ESE,113,0.0,0.0,63,0.00,,,0.00,WUHU216HW,2013-06-05 21:35:00,
2013-06-05 18:00:00,78.1,65.0,30.07,NW,315,0.0,0.0,64,0.00,,,0.00,WUHU216HW,2013-06-05 22:00:00,
2013-06-05 18:05:00,78.1,65.0,30.07,NW,315,0.0,0.0,64,0.00,,,0.00,WUHU216HW,2013-06-05 22:05:00,
2013-06-05 18:30:00,77.6,64.9,30.06,NNE,23,0.0,0.0,65,0.00,,,0.00,WUHU216HW,2013-06-05 22:30:00,
2013-06-05 18:35:00,77.6,64.9,30.06,NNE,23,0.0,0.0,65,0.00,,,0.00,WUHU216HW,2013-06-05 22:35:00,
2013-06-05 19:00:00,77.0,64.8,30.07,North,0,0.0,0.0,66,0.00,,,0.00,WUHU216HW,2013-06-05 23:00:00,
2013-06-05 19:05:00,77.0,64.8,30.07,North,0,0.0,0.0,66,0.00,,,0.00,WUHU216HW,2013-06-05 23:05:00,
2013-06-05 19:30:00,76.5,64.7,30.07,North,0,0.0,0.0,67,0.00,,,0.00,WUHU216HW,2013-06-05 23:30:00,
2013-06-05 19:35:00,76.5,64.7,30.07,North,0,0.0,0.0,67,0.00,,,0.00,WUHU216HW,2013-06-05 23:35:00,
2013-06-05 20:00:00,76.0,64.6,30.08,North,0,0.0,0.0,68,0.00,,,0.00,WUHU216HW,2013-06-06 00:00:00,
2013-06-05 20:05:00,76.0,64.6,30.08,North,0,0.0,0.0,68,0.00,,,0.00,WUHU216HW,2013-06-06 00:05:00,
2013-06-05 20:30:00,75.2,63.9,30.07,North,0,0.0,0.0,68,0.00,,,0.00,WUHU216HW,2013-06-06 00:30:00,
2013-06-05 20:35:00,75.2,63.9,30.07,North,0,0.0,0.0,68,0.00,,,0.00,WUHU216HW,2013-06-06 00:35:00,
2013-06-05 21:00:00,74.3,64.0,30.07,ENE,68,0.2,0.2,70,0.00,,,0.00,WUHU216HW,2013-06-06 01:00:00,
2013-06-05 21:05:00,74.3,64.0,30.07,ENE,68,0.2,0.2,70,0.00,,,0.00,WUHU216HW,2013-06-06 01:05:00,
2013-06-05 21:30:00,73.4,63.5,30.06,NNW,338,0.0,0.0,71,0.00,,,0.00,WUHU216HW,2013-06-06 01:30:00,
2013-06-05 21:35:00,73.4,63.5,30.06,NNW,338,0.0,0.0,71,0.00,,,0.00,WUHU216HW,2013-06-06 01:35:00,
2013-06-05 22:00:00,73.1,63.5,30.08,SSE,158,0.0,0.0,72,0.00,,,0.00,WUHU216HW,2013-06-06 02:00:00,
2013-06-05 22:05:00,73.1,63.5,30.08,SSE,158,0.0,0.0,72,0.00,,,0.00,WUHU216HW,2013-06-06 02:05:00,
2013-06-05 22:30:00,72.4,62.8,30.08,ENE,68,0.2,0.2,72,0.00,,,0.00,WUHU216HW,2013-06-06 02:30:00,
2013-06-05 22:35:00,72.4,62.8,30.08,ENE,68,0.2,0.2,72,0.00,,,0.00,WUHU216HW,2013-06-06 02:35:00,
2013-06-05 23:00:00,72.0,61.7,30.08,ENE,68,0.4,0.4,70,0.00,,,0.00,WUHU216HW,2013-06-06 03:00:00,
2013-06-05 23:05:00,72.0,61.7,30.08,ENE,68,0.4,0.4,70,0.00,,,0.00,WUHU216HW,2013-06-06 03:05:00,
2013-06-05 23:30:00,71.6,60.9,30.08,SE,135,0.9,0.9,69,0.00,,,0.00,WUHU216HW,2013-06-06 03:30:00,
2013-06-05 23:35:00,71.6,60.9,30.08,SE,135,0.9,0.9,69,0.00,,,0.00,WUHU216HW,2013-06-06 03:35:00,